User: anonymous   Login
Location: Artiguedieu
(43.5000°N, 0.5454°E)
Time: 16:43:37
(UTC+00:00)
Language:

NOAA 15 - Orbit

View from above orbital plane
View from above orbital plane
View from above satellite
View from above satellite

Ground track
Ground track

The orbit data is extracted from the following two-line orbital elements,

1 25338U 98030A   21268.34956101  .00000037  00000-0  33964-4 0  9998
2 25338  98.6759 295.9497 0010179 356.3368   3.7736 14.26059522215486
Epoch (UTC): 25 September 2021 08:23:22
Eccentricity: 0.0010179
inclination: 98.6759°
perigee height: 797 km
apogee height: 812 km
right ascension of ascending node: 295.9497°
argument of perigee: 356.3368°
revolutions per day: 14.26059522
mean anomaly at epoch: 3.7736°
orbit number at epoch: 21548

The dashed part of the orbit path shows where the satellite is in the earth's shadow,  

DLR